DW2849 Weather Reports


Display with metric or nautical units.
time (UTC)temp
F
wind
direction
speed
MPH
gust
MPH
rain 1hr
in
rain 24hr
in
rain mn
in
humidity
%
barometer
mb
20260509184104 65 132 2.0 3.0 0.00 0.00 0.00 76 1015.0
20260509183021 65 125 1.0 3.0 0.00 0.00 0.00 76 1015.1
20260509182322 65 145 2.0 3.0 0.00 0.00 0.00 75 1015.1
20260509181621 64 174 1.0 3.0 0.00 0.00 0.00 75 1015.1
20260509180922 63 160 2.0 3.0 0.00 0.00 0.00 76 1015.1
20260509180222 63 192 2.0 3.0 0.00 0.00 0.00 76 1015.1
20260509175522 63 178 1.0 3.0 0.00 0.00 0.00 76 1015.1
20260509174822 63 130 2.0 3.0 0.00 0.00 0.00 76 1015.1
20260509173930 0 175 1.0 2.0 0.00 0.00 0.00 1015.1
20260509173230 63 194 1.0 3.0 0.00 0.00 0.00 76 1015.0
20260509172338 63 180 2.0 3.0 0.00 0.00 0.00 76 1015.0
20260509171639 62 140 1.0 3.0 0.00 0.00 0.00 77 1015.0
20260509170938 62 182 2.0 2.0 0.00 0.00 0.00 76 1015.0
20260509170238 62 180 1.0 2.0 0.00 0.00 0.00 76 1015.0
20260509165347 62 172 1.0 2.0 0.00 0.00 0.00 77 1015.0
20260509164647 61 164 1.0 2.0 0.00 0.00 0.00 77 1015.0
20260509163946 61 170 1.0 2.0 0.00 0.00 0.00 77 1014.9
20260509163055 60 161 0.0 2.0 0.00 0.00 0.00 78 1014.9
20260509162355 60 194 1.0 2.0 0.00 0.00 0.00 77 1014.9
20260509161655 59 129 1.0 2.0 0.00 0.00 0.00 78 1015.0
20260509160955 59 225 0.0 1.0 0.00 0.00 0.00 80 1015.0
20260509160255 58 208 0.0 2.0 0.00 0.00 0.00 80 1015.0
20260509155555 57 129 0.0 2.0 0.00 0.00 0.00 79 1014.9
20260509154855 56 122 0.0 2.0 0.00 0.00 0.00 81 1014.9
20260509154155 56 180 0.0 2.0 0.00 0.00 0.00 80 1014.9
20260509153304 56 219 1.0 2.0 0.00 0.00 0.00 80 1014.9
20260509152604 55 180 0.0 1.0 0.00 0.00 0.00 81 1014.9
20260509151904 54 129 0.0 1.0 0.00 0.00 0.00 81 1014.9
20260509151012 53 138 0.0 2.0 0.00 0.00 0.00 82 1014.8
20260509150314 52 197 1.0 2.0 0.00 0.00 0.00 83 1014.8
20260509145612 52 228 1.0 2.0 0.00 0.00 0.00 84 1014.7
20260509144912 51 209 0.0 1.0 0.00 0.00 0.00 84 1014.7
20260509144212 51 202 0.0 1.0 0.00 0.00 0.00 84 1014.6
20260509143321 51 202 1.0 1.0 0.00 0.00 0.00 85 1014.6
20260509142622 52 202 0.0 2.0 0.00 0.00 0.00 84 1014.6
20260509141921 52 180 1.0 2.0 0.00 0.00 0.00 85 1014.6
20260509141220 52 0 0.0 0.0 0.00 0.00 0.00 84 1014.7
20260509140330 53 0 0.0 0.0 0.00 0.00 0.00 82 1014.6
20260509135629 52 267 0.0 1.0 0.00 0.00 0.00 83 1014.5
20260509134930 52 202 1.0 2.0 0.00 0.00 0.00 83 1014.4
20260509134229 53 225 1.0 2.0 0.00 0.00 0.00 82 1014.3
20260509133529 53 209 1.0 2.0 0.00 0.00 0.00 81 1014.2
20260509132829 54 197 0.0 1.0 0.00 0.00 0.00 80 1014.2
20260509132130 53 45 0.0 0.0 0.00 0.00 0.00 80 1014.2
20260509131237 53 45 0.0 0.0 0.00 0.00 0.00 82 1014.2
20260509130537 53 0 0.0 3.0 0.00 0.00 0.00 81 1014.2
20260509125645 54 0 2.0 2.0 0.00 0.00 0.00 81 1014.2
20260509124945 54 35 2.0 3.0 0.00 0.00 0.00 81 1014.1
20260509124245 54 31 3.0 3.0 0.00 0.00 0.00 81 1014.1
20260509123545 54 0 3.0 3.0 0.00 0.00 0.00 81 1014.1
20260509122845 54 0 2.0 3.0 0.00 0.00 0.00 81 1014.1
20260509122145 54 0 2.0 3.0 0.00 0.00 0.00 81 1014.1
20260509121254 54 0 2.0 2.0 0.00 0.00 0.00 82 1014.1
20260509120554 54 0 2.0 3.0 0.00 0.00 0.00 82 1014.1
20260509115856 54 0 3.0 3.0 0.00 0.00 0.00 82 1014.1
20260509115003 55 6 3.0 4.0 0.00 0.00 0.00 82 1014.1
20260509114303 55 28 3.0 4.0 0.00 0.00 0.00 81 1014.1
20260509113603 55 22 3.0 3.0 0.00 0.00 0.00 81 1014.2
20260509112903 55 0 3.0 4.0 0.00 0.00 0.00 82 1014.2
20260509112203 55 22 3.0 4.0 0.00 0.00 0.00 82 1014.2
20260509111311 55 0 3.0 3.0 0.00 0.00 0.00 82 1014.2
20260509110611 55 0 3.0 3.0 0.00 0.00 0.00 82 1014.1
20260509105912 55 0 2.0 3.0 0.00 0.00 0.00 82 1014.2
20260509105212 55 45 2.0 3.0 0.00 0.00 0.00 82 1014.2
20260509104512 55 45 2.0 2.0 0.00 0.00 0.00 82 1014.2
20260509103811 56 45 2.0 2.0 0.00 0.00 0.00 80 1014.2
20260509103112 56 45 2.0 3.0 0.00 0.00 0.00 80 1014.2
20260509102411 57 45 2.0 2.0 0.00 0.00 0.00 79 1014.2
20260509101520 57 45 2.0 2.0 0.00 0.00 0.00 79 1014.2
20260509100820 58 45 1.0 2.0 0.00 0.00 0.00 78 1014.2
20260509095929 58 45 1.0 2.0 0.00 0.00 0.00 77 1014.2
20260509095229 58 45 1.0 2.0 0.00 0.00 0.00 77 1014.2
20260509094529 58 45 2.0 2.0 0.00 0.00 0.00 77 1014.2
20260509093829 58 45 2.0 2.0 0.00 0.00 0.00 75 1014.2
20260509093129 59 45 1.0 2.0 0.00 0.00 0.00 74 1014.2
20260509092238 59 45 2.0 2.0 0.00 0.00 0.00 74 1014.3
20260509091538 59 45 1.0 2.0 0.00 0.00 0.00 71 1014.4
20260509090838 59 45 2.0 2.0 0.00 0.00 0.00 71 1014.4
20260509090138 59 45 1.0 2.0 0.00 0.00 0.00 72 1014.4
20260509085438 58 45 2.0 2.0 0.00 0.00 0.00 75 1014.4
20260509084738 58 45 1.0 2.0 0.00 0.00 0.00 78 1014.4
20260509084037 58 45 1.0 2.0 0.00 0.00 0.00 78 1014.6
20260509083338 58 45 1.0 2.0 0.00 0.00 0.00 79 1014.7
20260509082637 58 45 1.0 2.0 0.00 0.00 0.00 78 1014.7
20260509081938 59 45 1.0 2.0 0.00 0.00 0.00 78 1014.7
20260509081046 59 45 1.0 2.0 0.00 0.00 0.00 77 1014.6
20260509080346 59 45 1.0 2.0 0.00 0.00 0.00 76 1014.7
20260509075455 59 45 2.0 2.0 0.00 0.00 0.00 75 1014.7
20260509074755 58 45 2.0 2.0 0.00 0.00 0.00 77 1014.8
20260509074055 58 39 1.0 2.0 0.00 0.00 0.00 77 1014.8
20260509073204 58 45 1.0 2.0 0.00 0.00 0.00 77 1014.9
20260509072504 59 45 1.0 2.0 0.00 0.00 0.00 74 1014.8
20260509071804 59 45 1.0 2.0 0.00 0.00 0.00 69 1014.8
20260509071104 60 25 0.0 0.0 0.00 0.00 0.00 67 1014.9
20260509070404 61 0 0.0 0.0 0.00 0.00 0.00 65 1014.9
20260509065513 60 315 0.0 1.0 0.00 0.00 0.00 66 1015.0
20260509064812 60 315 0.0 2.0 0.00 0.00 0.00 66 1015.0
20260509064112 59 275 1.0 2.0 0.00 0.00 0.00 67 1015.1
20260509063412 59 270 2.0 2.0 0.00 0.00 0.00 67 1015.1
20260509062712 59 315 0.0 2.0 0.00 0.00 0.00 67 1015.0
20260509062012 59 340 1.0 2.0 0.00 0.00 0.00 68 1015.1
20260509061312 58 270 1.0 3.0 0.00 0.00 0.00 69 1015.2
20260509060613 59 285 2.0 3.0 0.00 0.00 0.00 69 1015.2
20260509055912 59 270 1.0 2.0 0.00 0.00 0.00 69 1015.3
20260509055212 59 270 1.0 2.0 0.00 0.00 0.00 69 1015.3
20260509054321 59 270 1.0 2.0 0.00 0.00 0.00 70 1015.2
20260509053621 59 315 1.0 2.0 0.00 0.00 0.00 71 1015.4
20260509052921 59 315 1.0 2.0 0.00 0.00 0.00 71 1015.4
20260509052030 59 315 1.0 2.0 0.00 0.00 0.00 71 1015.4
20260509051330 59 270 2.0 3.0 0.00 0.00 0.00 72 1015.3
20260509050629 59 270 2.0 3.0 0.00 0.00 0.00 73 1015.4
20260509045929 59 270 2.0 3.0 0.00 0.00 0.00 74 1015.3
20260509045229 59 270 2.0 3.0 0.00 0.00 0.00 74 1015.3
20260509044338 59 222 0.0 0.0 0.00 0.00 0.00 74 1015.3
20260509043638 60 225 0.0 2.0 0.00 0.00 0.00 72 1015.2
20260509042747 61 315 0.0 2.0 0.00 0.00 0.00 72 1015.1
20260509042047 61 315 1.0 2.0 0.00 0.00 0.00 73 1015.1
20260509041347 61 315 1.0 2.0 0.00 0.00 0.00 74 1015.0
20260509040647 60 322 0.0 2.0 0.00 0.00 0.00 80 1015.1
20260509035947 61 270 1.0 2.0 0.00 0.00 0.00 80 1015.0
20260509035247 61 315 2.0 2.0 0.00 0.00 0.00 79 1014.9
20260509034547 61 315 2.0 2.0 0.00 0.00 0.00 80 1014.9
20260509033847 61 350 1.0 2.0 0.00 0.00 0.00 78 1015.0
20260509033147 62 0 0.0 2.0 0.00 0.00 0.00 76 1014.9
20260509032257 62 0 0.0 2.0 0.00 0.00 0.00 75 1014.9
20260509031556 62 315 0.0 0.0 0.00 0.00 0.00 75 1014.8
20260509030855 63 0 0.0 0.0 0.00 0.00 0.00 77 1014.7
20260509030156 62 0 0.0 0.0 0.00 0.00 0.00 77 1014.6
20260509025306 61 315 0.0 0.0 0.00 0.00 0.00 76 1014.6
20260509024605 62 315 0.0 0.0 0.00 0.00 0.00 75 1014.6
20260509023905 62 315 0.0 2.0 0.00 0.00 0.00 75 1014.6
20260509023204 63 315 1.0 2.0 0.00 0.00 0.00 75 1014.6
20260509022317 63 315 1.0 2.0 0.00 0.00 0.00 74 1014.6
20260509021613 63 315 1.0 2.0 0.00 0.00 0.00 74 1014.6
20260509020914 64 315 1.0 3.0 0.00 0.00 0.00 73 1014.6
20260509020213 64 315 2.0 3.0 0.00 0.00 0.00 73 1014.6
20260509015513 65 321 1.0 3.0 0.00 0.00 0.00 73 1014.6
20260509014813 65 315 1.0 1.0 0.00 0.00 0.00 73 1014.7
20260509014114 65 343 0.0 1.0 0.00 0.00 0.00 74 1014.7
20260509013413 65 315 1.0 2.0 0.00 0.00 0.00 73 1014.7
20260509012520 66 315 2.0 3.0 0.00 0.00 0.00 72 1014.7
20260509011821 66 315 1.0 3.0 0.00 0.00 0.00 72 1014.8
20260509010930 66 0 1.0 3.0 0.00 0.00 0.00 72 1014.9
20260509010230 67 0 1.0 5.0 0.00 0.00 0.00 72 1014.9
20260509005531 67 298 2.0 5.0 0.00 0.00 0.00 72 1014.9
20260509004830 68 270 3.0 4.0 0.00 0.00 0.00 72 1015.0
20260509004129 68 248 2.0 3.0 0.00 0.00 0.00 70 1015.0
20260509003238 68 248 3.0 6.0 0.00 0.00 0.00 70 1015.0
20260509002538 68 302 1.0 5.0 0.00 0.00 0.00 70 1015.1
20260509001839 68 328 3.0 6.0 0.00 0.00 0.00 71 1015.2
20260509001138 69 245 2.0 4.0 0.00 0.00 0.00 70 1015.2
20260509000248 69 270 1.0 5.0 0.00 0.00 0.00 71 1015.2
20260508235547 69 212 2.0 5.0 0.00 0.00 0.00 70 1015.3
20260508234847 69 283 2.0 5.0 0.00 0.00 0.00 70 1015.4
20260508234147 69 228 3.0 6.0 0.00 0.00 0.00 71 1015.5
20260508233447 69 219 2.0 4.0 0.00 0.00 0.00 71 1015.5
20260508232404 69 248 3.0 6.0 0.00 0.00 0.00 71 1015.6
20260508231704 69 259 3.0 5.0 0.00 0.00 0.00 70 1015.6
20260508231004 69 315 1.0 6.0 0.00 0.00 0.00 70 1015.6
20260508230304 69 248 4.0 6.0 0.00 0.00 0.00 71 1015.8
20260508225604 69 264 2.0 5.0 0.00 0.00 0.00 71 1015.8
20260508224712 70 270 2.0 4.0 0.00 0.00 0.00 71 1016.0
20260508224013 70 245 2.0 3.0 0.00 0.00 0.00 71 1016.0
20260508223313 70 219 2.0 5.0 0.00 0.00 0.00 70 1016.1
20260508222613 70 197 3.0 4.0 0.00 0.00 0.00 70 1016.2
20260508221721 70 225 2.0 4.0 0.00 0.00 0.00 72 1016.3
20260508221021 69 245 3.0 5.0 0.00 0.00 0.00 71 1016.4
20260508220321 70 199 3.0 6.0 0.00 0.00 0.00 71 1016.5
20260508215621 70 202 3.0 4.0 0.00 0.00 0.00 71 1016.5
20260508214921 70 211 2.0 4.0 0.00 0.00 0.00 72 1016.6
20260508214221 69 197 2.0 4.0 0.00 0.00 0.00 72 1016.7
20260508213521 69 197 3.0 5.0 0.00 0.00 0.00 71 1016.8
20260508212821 69 199 2.0 4.0 0.00 0.00 0.00 72 1016.9
20260508212121 68 219 3.0 4.0 0.00 0.00 0.00 72 1017.0
20260508211229 68 287 2.0 5.0 0.00 0.00 0.00 73 1017.0
20260508210337 67 208 3.0 4.0 0.00 0.00 0.00 73 1017.1
20260508205637 67 197 2.0 6.0 0.00 0.00 0.00 74 1017.1
20260508204937 68 219 4.0 6.0 0.00 0.00 0.00 73 1017.1
20260508204240 68 231 3.0 6.0 0.00 0.00 0.00 72 1017.1
20260508203346 68 270 3.0 6.0 0.00 0.00 0.00 73 1017.2
20260508202646 67 267 2.0 5.0 0.00 0.00 0.00 74 1017.2
20260508201946 67 214 3.0 4.0 0.00 0.00 0.00 74 1017.2
20260508201246 67 253 1.0 4.0 0.00 0.00 0.00 74 1017.3
20260508200546 0 231 3.0 4.0 0.00 0.00 0.00 1017.3
20260508195654 67 268 3.0 5.0 0.00 0.00 0.00 74 1017.4
20260508194955 67 298 2.0 4.0 0.00 0.00 0.00 74 1017.5
20260508194255 66 228 2.0 4.0 0.00 0.00 0.00 75 1017.6
20260508193554 65 215 2.0 4.0 0.00 0.00 0.00 76 1017.6
20260508192855 64 110 3.0 4.0 0.00 0.00 0.00 76 1017.6
20260508192003 64 155 2.0 4.0 0.00 0.00 0.00 76 1017.6
20260508191303 63 231 2.0 4.0 0.00 0.00 0.00 77 1017.6
20260508190603 63 108 2.0 5.0 0.00 0.00 0.00 77 1017.8
20260508185904 63 218 3.0 4.0 0.00 0.00 0.00 77 1017.9
20260508185203 62 205 3.0 4.0 0.00 0.00 0.00 78 1017.9